CW2274 Weather Reports


time (UTC)temp
C
wind
direction
speed
KPH
gust
KPH
rain 1hr
cm
rain 24hr
cm
rain mn
cm
humidity
%
barometer
mb
20260831095023 27 6 0.0 1.6 0.00 0.00 0.00 54 1014.8
20260831094517 27 6 0.0 3.2 0.00 0.00 0.00 54 1014.8
20260831094031 27 6 0.0 3.2 0.00 0.00 0.00 56 1014.8
20260831093524 27 6 0.0 1.6 0.00 0.00 0.00 54 1014.7
20260831093019 27 6 0.0 1.6 0.00 0.00 0.00 54 1014.5
20260831092517 27 6 0.0 1.6 0.00 0.00 0.00 54 1014.6
20260831092032 27 6 0.0 1.6 0.00 0.00 0.00 54 1014.6
20260831091527 27 6 0.0 3.2 0.00 0.00 0.00 55 1014.6
20260831091022 27 6 1.6 4.8 0.00 0.00 0.00 54 1014.7
20260831090516 27 6 1.6 3.2 0.00 0.00 0.00 54 1014.9
20260831090045 27 6 1.6 3.2 0.00 0.00 0.00 54 1014.9
20260831085525 27 6 0.0 1.6 0.00 0.00 0.00 54 1014.9
20260831085019 27 6 0.0 3.2 0.00 0.00 0.00 55 1014.9
20260831084517 27 6 1.6 3.2 0.00 0.00 0.00 55 1015.0
20260831084032 27 6 1.6 3.2 0.00 0.00 0.00 55 1014.9
20260831083525 27 6 1.6 3.2 0.00 0.00 0.00 55 1015.1
20260831083019 27 6 1.6 3.2 0.00 0.00 0.00 55 1015.0
20260831082513 27 6 0.0 1.6 0.00 0.00 0.00 53 1014.9
20260831082027 27 6 0.0 1.6 0.00 0.00 0.00 55 1015.0
20260831081522 27 6 0.0 1.6 0.00 0.00 0.00 55 1015.0
20260831081019 27 6 0.0 3.2 0.00 0.00 0.00 53 1015.1
20260831080514 27 6 1.6 3.2 0.00 0.00 0.00 53 1015.0
20260831080042 28 6 0.0 1.6 0.00 0.00 0.00 52 1015.1
20260831075022 28 6 0.0 0.0 0.00 0.00 0.00 52 1015.1
20260831074517 28 6 0.0 0.0 0.00 0.00 0.00 52 1015.1
20260831074031 28 6 0.0 0.0 0.00 0.00 0.00 51 1015.2
20260831073526 28 6 0.0 0.0 0.00 0.00 0.00 50 1015.1
20260831073024 28 6 0.0 0.0 0.00 0.00 0.00 51 1015.1
20260831072520 28 6 0.0 1.6 0.00 0.00 0.00 50 1015.2
20260831072014 28 6 0.0 1.6 0.00 0.00 0.00 50 1015.2
20260831071529 28 6 0.0 1.6 0.00 0.00 0.00 49 1015.3
20260831071023 28 6 0.0 3.2 0.00 0.00 0.00 50 1015.1
20260831070518 28 6 0.0 3.2 0.00 0.00 0.00 49 1015.2
20260831070045 29 6 0.0 3.2 0.00 0.00 0.00 48 1015.2
20260831065529 29 6 0.0 3.2 0.00 0.00 0.00 48 1015.2
20260831065024 29 6 1.6 3.2 0.00 0.00 0.00 47 1015.4
20260831064518 30 6 1.6 6.4 0.00 0.00 0.00 46 1015.6
20260831064013 29 7 3.2 6.4 0.00 0.00 0.00 46 1015.4
20260831063527 29 8 1.6 4.8 0.00 0.00 0.00 48 1015.5
20260831063022 29 8 3.2 4.8 0.00 0.00 0.00 48 1015.5
20260831062516 29 9 1.6 3.2 0.00 0.00 0.00 48 1015.5
20260831062014 29 9 3.2 4.8 0.00 0.00 0.00 48 1015.5
20260831061529 29 9 0.0 4.8 0.00 0.00 0.00 48 1015.5
20260831061023 29 9 1.6 3.2 0.00 0.00 0.00 48 1015.5
20260831060517 29 9 1.6 3.2 0.00 0.00 0.00 47 1015.7
20260831060044 29 9 1.6 4.8 0.00 0.00 0.00 47 1015.5
20260831055524 30 9 1.6 8.0 0.00 0.00 0.00 46 1015.4
20260831055019 30 9 3.2 9.7 0.00 0.00 0.00 46 1015.3
20260831054514 30 11 4.8 9.7 0.00 0.00 0.00 45 1015.3
20260831054032 30 4 4.8 9.7 0.00 0.00 0.00 44 1015.4
20260831053526 30 6 3.2 9.7 0.00 0.00 0.00 44 1015.3
20260831053020 30 6 3.2 8.0 0.00 0.00 0.00 43 1015.2
20260831052515 30 33 0.0 6.4 0.00 0.00 0.00 43 1015.0
20260831052029 30 33 3.2 12.9 0.00 0.00 0.00 43 1015.0
20260831051523 31 33 4.8 12.9 0.00 0.00 0.00 42 1014.9
20260831051017 30 6 4.8 11.3 0.00 0.00 0.00 42 1014.9
20260831050516 31 6 6.4 11.3 0.00 0.00 0.00 41 1014.7
20260831050042 31 360 1.6 11.3 0.00 0.00 0.00 41 1014.8
20260831045522 31 2 4.8 9.7 0.00 0.00 0.00 41 1014.8
20260831045016 31 13 6.4 9.7 0.00 0.00 0.00 40 1014.8
20260831044530 31 329 3.2 27.4 0.00 0.00 0.00 43 1014.7
20260831044104 31 277 9.7 27.4 0.00 0.00 0.00 43 1014.6
20260831043514 31 271 12.9 25.7 0.00 0.00 0.00 43 1014.6
20260831043028 31 260 11.3 27.4 0.00 0.00 0.00 43 1014.5
20260831042523 31 260 14.5 27.4 0.00 0.00 0.00 43 1014.6
20260831042021 31 292 9.7 22.5 0.00 0.00 0.00 42 1014.7
20260831041516 31 267 11.3 22.5 0.00 0.00 0.00 42 1014.6
20260831041030 31 276 11.3 24.1 0.00 0.00 0.00 42 1014.6
20260831040524 31 265 14.5 30.6 0.00 0.00 0.00 41 1014.5
20260831040030 31 289 9.7 30.6 0.00 0.00 0.00 40 1014.5
20260831035530 31 271 9.7 22.5 0.00 0.00 0.00 39 1014.5
20260831035025 31 283 8.0 30.6 0.00 0.00 0.00 39 1014.4
20260831034520 32 252 16.1 30.6 0.00 0.00 0.00 40 1014.2
20260831034019 32 254 12.9 22.5 0.00 0.00 0.00 40 1014.3
20260831033513 32 274 12.9 25.7 0.00 0.00 0.00 40 1014.1
20260831033028 32 277 16.1 25.7 0.00 0.00 0.00 40 1014.0
20260831032522 32 279 12.9 27.4 0.00 0.00 0.00 40 1014.0
20260831032017 32 261 14.5 33.8 0.00 0.00 0.00 40 1013.9
20260831031512 32 267 19.3 35.4 0.00 0.00 0.00 39 1013.7
20260831031026 32 263 19.3 35.4 0.00 0.00 0.00 39 1013.5
20260831030525 32 229 17.7 27.4 0.00 0.00 0.00 39 1013.5
20260831030030 32 238 14.5 29.0 0.00 0.00 0.00 38 1013.4
20260831025531 32 271 9.7 30.6 0.00 0.00 0.00 38 1013.4
20260831025026 32 264 12.9 30.6 0.00 0.00 0.00 38 1013.5
20260831024520 33 258 12.9 29.0 0.00 0.00 0.00 37 1013.4
20260831024015 33 288 11.3 19.3 0.00 0.00 0.00 36 1013.4
20260831023529 33 266 11.3 20.9 0.00 0.00 0.00 36 1013.0
20260831023024 33 283 9.7 16.1 0.00 0.00 0.00 35 1013.1
20260831022522 34 277 6.4 16.1 0.00 0.00 0.00 35 1013.0
20260831022017 34 287 6.4 11.3 0.00 0.00 0.00 34 1012.8
20260831021512 34 287 4.8 11.3 0.00 0.00 0.00 34 1012.8
20260831021026 34 289 3.2 12.9 0.00 0.00 0.00 34 1012.6
20260831020518 34 289 3.2 11.3 0.00 0.00 0.00 34 1012.6
20260831020044 34 304 4.8 8.0 0.00 0.00 0.00 33 1012.5
20260831015524 35 308 3.2 6.4 0.00 0.00 0.00 33 1012.4
20260831015023 35 312 3.2 8.0 0.00 0.00 0.00 32 1012.4
20260831014517 35 331 3.2 6.4 0.00 0.00 0.00 32 1012.3
20260831014031 35 331 4.8 8.0 0.00 0.00 0.00 32 1012.4
20260831013526 35 332 3.2 8.0 0.00 0.00 0.00 32 1012.3
20260831013021 35 333 3.2 6.4 0.00 0.00 0.00 32 1012.3
20260831012514 35 337 1.6 4.8 0.00 0.00 0.00 32 1012.3
20260831012028 35 340 1.6 4.8 0.00 0.00 0.00 32 1012.3
20260831011523 35 340 1.6 4.8 0.00 0.00 0.00 31 1012.3
20260831011022 35 340 1.6 4.8 0.00 0.00 0.00 32 1012.1
20260831010517 35 340 1.6 6.4 0.00 0.00 0.00 32 1012.3
20260831010026 35 331 3.2 8.0 0.00 0.00 0.00 31 1012.2
20260831005525 35 356 1.6 4.8 0.00 0.00 0.00 31 1012.1
20260831005020 35 356 1.6 11.3 0.00 0.00 0.00 30 1012.2
20260831004515 35 356 3.2 12.9 0.00 0.00 0.00 30 1012.2
20260831004030 36 346 3.2 12.9 0.00 0.00 0.00 30 1012.1
20260831003529 36 359 3.2 9.7 0.00 0.00 0.00 30 1012.0
20260831003023 36 344 4.8 9.7 0.00 0.00 0.00 30 1012.1
20260831002517 36 309 3.2 9.7 0.00 0.00 0.00 30 1012.2
20260831002031 36 352 3.2 11.3 0.00 0.00 0.00 30 1012.3
20260831001526 36 19 4.8 8.0 0.00 0.00 0.00 30 1012.3
20260831001020 36 344 4.8 8.0 0.00 0.00 0.00 30 1012.3
20260831000516 36 356 3.2 9.7 0.00 0.00 0.00 30 1012.1
20260831000027 36 351 3.2 12.9 0.00 0.00 0.00 30 1012.3
20260830235527 36 360 4.8 12.9 0.00 0.00 0.00 30 1012.3
20260830235023 36 360 4.8 8.0 0.00 0.00 0.00 29 1012.3
20260830233529 36 312 3.2 6.4 0.00 0.00 0.00 29 1012.1
20260830233025 36 309 1.6 8.0 0.00 0.00 0.00 31 1012.3
20260830232521 36 308 3.2 9.7 0.00 0.00 0.00 29 1012.4
20260830232016 36 336 3.2 11.3 0.00 0.00 0.00 29 1012.4
20260830231516 36 307 1.6 6.4 0.00 0.00 0.00 30 1012.5
20260830231032 37 307 3.2 6.4 0.00 0.00 0.00 29 1012.6
20260830230529 37 294 3.2 8.0 0.00 0.00 0.00 29 1012.7
20260830230036 36 294 4.8 11.3 0.00 0.00 0.00 30 1012.8
20260830225518 37 295 3.2 11.3 0.00 0.00 0.00 29 1012.8
20260830225013 37 316 3.2 16.1 0.00 0.00 0.00 29 1012.8
20260830224529 37 301 6.4 11.3 0.00 0.00 0.00 29 1012.9
20260830224025 37 2 3.2 6.4 0.00 0.00 0.00 30 1012.9
20260830223525 37 6 3.2 8.0 0.00 0.00 0.00 29 1013.2
20260830223021 37 6 4.8 14.5 0.00 0.00 0.00 29 1013.1
20260830222516 38 352 4.8 14.5 0.00 0.00 0.00 28 1013.3
20260830222032 37 296 4.8 14.5 0.00 0.00 0.00 29 1013.5
20260830221529 37 231 6.4 14.5 0.00 0.00 0.00 29 1013.6
20260830221026 38 286 6.4 16.1 0.00 0.00 0.00 28 1013.6
20260830220522 38 289 8.0 16.1 0.00 0.00 0.00 28 1013.7
20260830220034 37 325 4.8 14.5 0.00 0.00 0.00 29 1013.7
20260830215515 37 295 4.8 22.5 0.00 0.00 0.00 29 1013.9
20260830215032 37 299 4.8 22.5 0.00 0.00 0.00 29 1013.8
20260830214528 37 19 3.2 11.3 0.00 0.00 0.00 29 1013.9
20260830212026 36 23 1.6 8.0 0.00 0.00 0.00 31 1014.3
20260830211521 36 23 3.2 14.5 0.00 0.00 0.00 31 1014.3
20260830211017 37 23 9.7 14.5 0.00 0.00 0.00 29 1014.4
20260830210517 36 352 4.8 12.9 0.00 0.00 0.00 31 1014.7
20260830210045 37 358 3.2 11.3 0.00 0.00 0.00 29 1014.8
20260830205526 37 75 3.2 11.3 0.00 0.00 0.00 31 1014.8
20260830205022 36 69 4.8 11.3 0.00 0.00 0.00 31 1014.9
20260830204519 37 27 4.8 9.7 0.00 0.00 0.00 31 1015.0
20260830204014 36 36 4.8 8.0 0.00 0.00 0.00 31 1015.2
20260830203530 36 61 6.4 14.5 0.00 0.00 0.00 32 1015.2
20260830203026 37 38 4.8 14.5 0.00 0.00 0.00 31 1015.3
20260830202526 37 290 3.2 12.9 0.00 0.00 0.00 30 1015.2
20260830202021 37 249 6.4 12.9 0.00 0.00 0.00 30 1015.3
20260830201517 36 311 3.2 8.0 0.00 0.00 0.00 32 1015.6
20260830201013 36 81 3.2 16.1 0.00 0.00 0.00 32 1015.8
20260830200529 36 91 8.0 16.1 0.00 0.00 0.00 32 1015.8
20260830200037 36 30 6.4 16.1 0.00 0.00 0.00 32 1015.8
20260830195518 36 65 9.7 16.1 0.00 0.00 0.00 32 1015.7
20260830195018 35 105 3.2 17.7 0.00 0.00 0.00 33 1015.9
20260830194514 36 70 9.7 17.7 0.00 0.00 0.00 32 1015.9
20260830194029 36 92 3.2 14.5 0.00 0.00 0.00 33 1016.0
20260830193525 35 85 8.0 16.1 0.00 0.00 0.00 33 1016.0
20260830193021 35 77 6.4 16.1 0.00 0.00 0.00 33 1016.1
20260830192517 35 116 4.8 14.5 0.00 0.00 0.00 34 1016.3
20260830192013 35 151 4.8 16.1 0.00 0.00 0.00 34 1016.4
20260830191532 35 81 8.0 16.1 0.00 0.00 0.00 35 1016.4
20260830191028 35 98 8.0 16.1 0.00 0.00 0.00 35 1016.6
20260830190524 35 97 9.7 16.1 0.00 0.00 0.00 35 1016.7
20260830190031 34 99 9.7 17.7 0.00 0.00 0.00 36 1016.7
20260830185512 34 115 11.3 20.9 0.00 0.00 0.00 36 1016.8
20260830185029 34 58 9.7 20.9 0.00 0.00 0.00 36 1016.8
20260830184524 34 90 11.3 17.7 0.00 0.00 0.00 37 1016.9
20260830184024 34 80 8.0 16.1 0.00 0.00 0.00 36 1017.0
20260830183520 34 80 8.0 20.9 0.00 0.00 0.00 37 1017.0
20260830183016 33 95 11.3 20.9 0.00 0.00 0.00 38 1017.1
20260830182532 33 104 11.3 16.1 0.00 0.00 0.00 37 1017.2
20260830182027 34 87 8.0 16.1 0.00 0.00 0.00 37 1017.3
20260830181523 33 92 4.8 16.1 0.00 0.00 0.00 37 1017.3
20260830181018 33 104 9.7 16.1 0.00 0.00 0.00 37 1017.5
20260830180518 33 88 4.8 17.7 0.00 0.00 0.00 38 1017.5
20260830180046 33 79 9.7 17.7 0.00 0.00 0.00 37 1017.5
20260830175527 33 79 6.4 17.7 0.00 0.00 0.00 38 1017.6
20260830175024 32 60 8.0 17.7 0.00 0.00 0.00 40 1017.6
20260830174520 32 84 6.4 16.1 0.00 0.00 0.00 39 1017.7
20260830174016 32 65 8.0 16.1 0.00 0.00 0.00 40 1017.7
20260830173532 32 86 1.6 14.5 0.00 0.00 0.00 39 1017.7
20260830173028 32 97 8.0 14.5 0.00 0.00 0.00 40 1017.7
20260830172527 32 96 8.0 16.1 0.00 0.00 0.00 41 1017.8
20260830172024 32 77 9.7 16.1 0.00 0.00 0.00 40 1017.8
20260830171520 31 89 8.0 14.5 0.00 0.00 0.00 41 1017.7
20260830171016 31 107 9.7 14.5 0.00 0.00 0.00 41 1017.9
20260830170513 32 97 6.4 14.5 0.00 0.00 0.00 41 1017.7
20260830170040 31 80 9.7 16.1 0.00 0.00 0.00 41 1017.9
20260830165521 31 79 9.7 17.7 0.00 0.00 0.00 41 1017.9
20260830165021 31 72 11.3 17.7 0.00 0.00 0.00 41 1017.9
20260830164517 31 92 6.4 14.5 0.00 0.00 0.00 41 1017.8
20260830164013 31 99 9.7 14.5 0.00 0.00 0.00 41 1017.9
20260830163529 32 177 4.8 17.7 0.00 0.00 0.00 41 1017.8
20260830163025 31 102 6.4 17.7 0.00 0.00 0.00 42 1017.9
20260830162520 31 118 8.0 16.1 0.00 0.00 0.00 42 1017.9
20260830162016 31 218 6.4 16.1 0.00 0.00 0.00 42 1018.0
20260830161516 31 194 4.8 14.5 0.00 0.00 0.00 43 1018.0
20260830161032 31 207 4.8 12.9 0.00 0.00 0.00 43 1018.0
20260830160528 31 125 6.4 14.5 0.00 0.00 0.00 43 1018.1
20260830160035 31 215 4.8 14.5 0.00 0.00 0.00 44 1018.0
20260830155517 30 213 6.4 14.5 0.00 0.00 0.00 44 1018.1
20260830155012 30 119 6.4 16.1 0.00 0.00 0.00 44 1018.1
20260830154528 30 106 6.4 16.1 0.00 0.00 0.00 45 1018.0
20260830154028 30 114 8.0 16.1 0.00 0.00 0.00 44 1017.9
20260830153524 30 131 6.4 16.1 0.00 0.00 0.00 45 1017.9
20260830153020 30 131 6.4 12.9 0.00 0.00 0.00 44 1018.0
20260830152516 30 215 6.4 11.3 0.00 0.00 0.00 45 1018.1
20260830152031 30 159 3.2 12.9 0.00 0.00 0.00 46 1018.1
20260830151527 30 210 6.4 12.9 0.00 0.00 0.00 47 1018.0
20260830151024 29 204 3.2 6.4 0.00 0.00 0.00 49 1018.0
20260830150524 29 204 3.2 6.4 0.00 0.00 0.00 50 1018.0
20260830150032 28 204 3.2 6.4 0.00 0.00 0.00 51 1018.0
20260830145514 28 205 1.6 8.0 0.00 0.00 0.00 51 1018.2
20260830145030 28 205 3.2 8.0 0.00 0.00 0.00 52 1018.0
20260830144525 28 205 3.2 8.0 0.00 0.00 0.00 52 1018.0
20260830144021 28 205 4.8 8.0 0.00 0.00 0.00 53 1018.0
20260830143517 27 202 3.2 8.0 0.00 0.00 0.00 53 1018.1
20260830143017 27 202 3.2 9.7 0.00 0.00 0.00 53 1018.1
20260830142513 27 200 4.8 9.7 0.00 0.00 0.00 54 1018.2
20260830142029 27 196 3.2 9.7 0.00 0.00 0.00 54 1018.3
20260830141525 27 89 1.6 6.4 0.00 0.00 0.00 54 1018.3
20260830141020 27 89 3.2 6.4 0.00 0.00 0.00 54 1018.3
20260830140516 27 89 3.2 6.4 0.00 0.00 0.00 54 1018.2
20260830140043 27 89 3.2 11.3 0.00 0.00 0.00 54 1018.3
20260830135526 27 89 4.8 11.3 0.00 0.00 0.00 54 1018.3
20260830135026 27 96 6.4 11.3 0.00 0.00 0.00 53 1018.2
20260830134522 27 97 4.8 11.3 0.00 0.00 0.00 53 1018.1
20260830134017 27 99 4.8 8.0 0.00 0.00 0.00 52 1018.0
20260830133512 27 100 3.2 6.4 0.00 0.00 0.00 52 1018.1
20260830133028 27 100 3.2 8.0 0.00 0.00 0.00 52 1018.1
20260830132524 27 99 4.8 8.0 0.00 0.00 0.00 51 1018.1
20260830132020 27 98 3.2 6.4 0.00 0.00 0.00 51 1018.0
20260830131520 27 97 4.8 6.4 0.00 0.00 0.00 51 1018.0
20260830131015 27 97 3.2 6.4 0.00 0.00 0.00 51 1017.9
20260830130531 27 97 1.6 6.4 0.00 0.00 0.00 50 1018.0
20260830130040 27 97 4.8 6.4 0.00 0.00 0.00 50 1017.9
20260830125521 27 96 3.2 6.4 0.00 0.00 0.00 50 1017.8
20260830125017 27 96 4.8 6.4 0.00 0.00 0.00 50 1017.7
20260830124513 27 96 1.6 6.4 0.00 0.00 0.00 50 1017.7
20260830124013 27 96 1.6 6.4 0.00 0.00 0.00 50 1017.7
20260830123528 27 96 3.2 11.3 0.00 0.00 0.00 49 1017.5
20260830123024 28 96 4.8 14.5 0.00 0.00 0.00 48 1017.3
20260830122520 28 101 8.0 14.5 0.00 0.00 0.00 47 1017.2
20260830122016 27 110 4.8 9.7 0.00 0.00 0.00 48 1017.2
20260830121513 27 154 4.8 8.0 0.00 0.00 0.00 48 1017.3
20260830121029 27 204 4.8 8.0 0.00 0.00 0.00 48 1017.4
20260830120529 28 206 3.2 8.0 0.00 0.00 0.00 47 1017.5
20260830120036 28 216 3.2 8.0 0.00 0.00 0.00 47 1017.5
20260830115517 28 217 3.2 9.7 0.00 0.00 0.00 47 1017.2
20260830115013 28 217 4.8 9.7 0.00 0.00 0.00 46 1017.2
20260830114529 28 227 6.4 12.9 0.00 0.00 0.00 45 1017.1
20260830114025 28 138 8.0 16.1 0.00 0.00 0.00 45 1016.9
20260830113521 28 125 6.4 16.1 0.00 0.00 0.00 45 1016.7
20260830113020 28 115 8.0 16.1 0.00 0.00 0.00 46 1016.5
20260830112516 28 115 6.4 12.9 0.00 0.00 0.00 48 1016.4
20260830112012 27 133 4.8 9.7 0.00 0.00 0.00 49 1016.3
20260830111528 27 147 4.8 12.9 0.00 0.00 0.00 49 1016.4
20260830111024 28 119 6.4 12.9 0.00 0.00 0.00 49 1016.5
20260830110519 28 148 8.0 12.9 0.00 0.00 0.00 49 1016.5
20260830110028 28 83 4.8 12.9 0.00 0.00 0.00 50 1016.6
20260830105513 28 109 4.8 9.7 0.00 0.00 0.00 50 1016.5
20260830105029 28 110 4.8 12.9 0.00 0.00 0.00 50 1016.5
20260830104525 28 133 4.8 16.1 0.00 0.00 0.00 49 1016.7
20260830104021 28 122 9.7 16.1 0.00 0.00 0.00 49 1016.8
20260830103516 28 105 8.0 14.5 0.00 0.00 0.00 50 1016.8
20260830103012 27 132 6.4 14.5 0.00 0.00 0.00 50 1016.7
20260830102528 27 123 8.0 14.5 0.00 0.00 0.00 51 1016.6
20260830102023 27 110 8.0 16.1 0.00 0.00 0.00 51 1016.4
20260830101523 27 111 8.0 16.1 0.00 0.00 0.00 51 1016.4
20260830101019 27 121 6.4 14.5 0.00 0.00 0.00 51 1016.2
20260830100515 28 121 9.7 14.5 0.00 0.00 0.00 50 1016.2
20260830100042 28 102 8.0 14.5 0.00 0.00 0.00 49 1016.0
20260830095523 28 110 4.8 9.7 0.00 0.00 0.00 48 1015.9